Regional Weather Roundup
Issued by NWS Newport/Morehead, NC

Current Version | Previous Version | Graphics & Text | Print | Product List | Glossary On
Versions: 1 2 3 4 5 6 7 8 9 10 11 12 13 14 15 16 17 18 19 20 21 22 23 24 25 26 27 28 29 30 31 32 33 34 35 36 37 38 39 40 41 42 43 44 45 46 47 48 49 50
000 ASUS42 KMHX 300222 RWRMHX WEATHER ROUNDUP FOR EASTERN NORTH CAROLINA NATIONAL WEATHER SERVICE NEWPORT/MOREHEAD CITY NC 1000 PM EDT MON SEP 29 2014 NOTE: "FAIR" INDICATES FEW OR NO CLOUDS BELOW 12,000 FEET WITH NO SIGNIFICANT WEATHER AND/OR OBSTRUCTIONS TO VISIBILITY NCZ015>017-031-032-045>047-102-103-300300- NORTH COAST CITY SKY/WX TMP DP RH WIND PRES REMARKS EDENTON CLOUDY 67 64 91 N6 29.96S ELIZABETH CITY CLOUDY 66 65 96 NW5 29.95S KITTY HAWK CLOUDY 69 66 89 CALM 29.93F MANTEO CLOUDY 69 66 90 N8 29.94F $$ NCZ045>047-081-094-103-104-300300- CENTRAL COAST CITY SKY/WX TMP DP RH WIND PRES REMARKS FRISCO LGT RAIN 68 65 90 NE5 29.94R SWANQUARTER N/A 68 N/A N/A NW1 29.91S $$ NCZ095-097-098-100-101-300300- SOUTHERN COAST CITY SKY/WX TMP DP RH WIND PRES REMARKS BEAUFORT CLOUDY 70 67 90 N5 29.95S CEDAR ISLAND N/A 72 N/A N/A N7 29.97S JACKSONVILLE CLOUDY 69 65 86 NW7 29.95S NEWPORT NOT AVBL PINEY ISLAND CLOUDY 74 66 76 N7 29.94S HAZE WILMINGTON CLOUDY 65 61 87 CALM 29.96R $$ NCZ011>013-027>030-043-044-078>080-089-090>093-098-300300- COASTAL PLAIN CITY SKY/WX TMP DP RH WIND PRES REMARKS AHOSKIE RAIN 62 62 97 CALM 29.98S CLINTON CLOUDY 65 64 98 CALM 29.98F ELIZABETHTOWN CLOUDY 64 64 98 CALM 29.98S GOLDSBORO CLOUDY 65 64 98 CALM 29.97S GREENVILLE RAIN 64 64 100 CALM 29.99F HAVELOCK LGT RAIN 69 67 93 NW8 29.96S KENANSVILLE CLOUDY 65 64 96 NW5 29.98S FOG KINSTON CLOUDY 65 64 97 NW6 29.98S NEW BERN CLOUDY 70 65 84 N5 29.97S RICHLANDS CLOUDY 66 63 88 NW3 29.96S ROANOKE RAPIDS NOT AVBL ROCKY MOUNT LGT RAIN 65 63 93 W3 29.99S WASHINGTON CLOUDY 65 64 94 CALM 29.97S WHITEVILLE CLOUDY 65 63 94 CALM 29.97S $$ AMZ130-135-150-152-154-156-158-170-250-252-270-ANZ085-086-088-633-658-670-300300- MARINE OBSERVATIONS STATION/POSITION TIME TEMP WIND PRES WAVE SWELL AIR SEA DIR/SP/G HT/PER HT/PER (UTC) (F) (DEG/KT/KT) (MB) (FT/S) (FT/S) CHESAPEAKE LIGHT 0200 71 360/ 6/ 7 1014.8 BUOY 44014 0200 70 73 360/ 8/ 10 1013.4 2/ 8 2/ 8 DUCK 0200 71 73 20/ 7/ 8 1013.1 2E DUCK 0200 N/A 2/ 8 OREGON INLET 0200 70 73 10/ 4/ 7 1013.8 BUOY 44095 0200 73 N/A 3/ 8 20E OREGON INLET NOT AVBL HATTERAS CG 0200 71 76 20/ 8/ 10 1014.3 DIAMOND BUOY 0200 73 350/ 14/ 17 1013.3 3/ 8 2/ 8 CAPE LOOKOUT 0200 71 10/ 7/ 9 1013.8 BEAUFORT LAB 0200 70 75 360/ 7/ 9 1013.6 30 SE NEW RIVER 0200 73 80 10/ 14/ 17 1013.2 3/ 8 2/ 8 5 SE WRIGHTSVILL 0200 64 76 10/ 17/ 19 N/A BUOY 41002 0121 79 81 120/ 8/ 10 1013.1 3/ 7 3/ 7 BUOY 41004 0200 75 81 50/ 21/ 25 1011.5 6/ 6 2/11 $$

USA.gov is the U.S. government's official web portal to all federal, state and local government web resources and services.